SCP
0 0 1 1 0 0 0 0 0 0 0 0 0 0 1 1 1 1 1 1 1 1 2 2 2 2 2 2 2 2 2 2 1 1 1 1 1 1 1 2 2 2 2 2 2 2 2 1 1
0 0 1 1 0 0 0 0 0 0 0 0 0 1 1 2 1 1 1 1 1 2 2 2 3 2 2 2 2 2 2 2 1 1 1 1 1 1 1 2 2 2 2 2 2 2 2 2 1
0 0 1 1 0 0 0 0 0 0 0 0 0 1 1 2 1 1 1 1 2 2 2 3 3 3 2 2 2 2 2 2 1 1 1 1 1 1 1 2 2 2 2 2 2 2 2 2 2
1 1 1 1 0 0 0 0 0 0 0 1 1 1 2 2 2 2 2 2 2 2 3 3 3 3 3 2 2 2 2 2 2 1 1 1 1 1 1 1 2 2 2 2 3 3 3 2 2
1 1 1 0 0 0 0 0 0 0 1 1 1 2 2 2 2 2 2 2 2 3 3 3 3 3 3 2 2 2 2 2 2 1 1 1 1 1 1 1 1 2 2 3 3 3 3 2 2
1 1 1 0 0 0 0 0 0 1 1 1 2 2 3 3 3 3 2 2 2 3 3 4 3 3 3 3 2 2 2 2 2 1 1 1 1 1 1 1 1 2 3 3 3 3 3 3 2
1 1 1 0 0 0 0 0 0 1 1 1 2 3 3 3 4 3 2 2 2 3 4 4 4 3 3 2 2 2 2 2 2 2 1 1 1 1 1 1 1 2 3 3 3 3 3 3 2
0 1 0 0 0 0 0 1 1 2 2 2 2 3 3 3 4 4 3 2 2 3 3 4 5 4 3 2 2 2 2 2 2 2 2 2 2 1 1 1 1 1 2 3 3 3 3 2 2
0 0 0 0 0 0 1 2 3 3 3 3 3 3 3 4 5 4 3 3 2 3 3 4 5 5 4 3 2 2 2 2 2 2 2 2 2 2 1 1 1 1 2 3 3 4 3 2 1
0 0 0 0 0 1 1 3 3 3 3 3 3 3 4 5 5 5 4 3 2 2 3 4 5 5 5 3 2 2 2 2 2 2 2 2 2 2 1 1 1 1 2 3 3 3 2 1 0
0 0 0 0 1 1 2 3 3 3 3 3 3 4 4 5 5 5 4 3 2 2 2 3 4 5 5 4 3 2 2 2 2 2 1 1 1 1 1 1 1 2 2 2 3 2 1 0 0
0 0 0 1 1 2 3 4 3 3 2 3 3 4 5 5 5 5 4 3 3 2 2 3 3 4 5 4 3 3 2 2 2 2 1 1 1 1 2 2 2 2 2 2 1 1 0 0 0
0 0 1 1 2 2 3 3 3 3 3 4 4 4 5 5 5 4 4 3 3 2 2 3 3 3 4 4 3 3 2 2 2 2 1 1 1 1 2 2 2 2 1 1 0 0 0 0 0
0 0 1 1 1 2 2 2 2 3 4 4 4 4 5 6 5 4 4 3 2 2 2 3 3 3 3 3 3 3 2 2 2 2 1 1 1 1 1 2 1 1 1 0 0 0 0 0 0
0 0 0 1 1 1 1 1 2 2 3 3 3 4 5 6 5 4 4 3 3 2 3 3 3 3 2 2 2 2 2 2 2 2 1 1 1 1 1 1 1 1 1 0 0 0 0 0 0
0 0 0 0 0 1 1 1 1 2 2 2 3 3 5 5 5 4 4 3 3 3 3 3 3 3 2 2 2 2 3 2 2 2 1 1 1 1 1 1 0 1 1 0 0 0 0 0 0
0 0 0 0 0 1 1 1 1 1 2 2 2 3 3 3 3 3 4 3 3 3 3 4 4 3 3 2 2 2 2 3 2 2 2 1 1 1 1 0 0 0 0 0 0 0 0 0 0
0 0 0 0 0 1 1 1 1 1 1 2 2 3 3 2 2 3 3 3 4 3 3 4 4 4 3 2 2 2 2 3 2 2 2 1 1 1 0 0 0 0 0 0 0 0 0 0 0
0 0 0 0 0 0 0 1 1 1 1 1 2 2 3 2 2 2 3 4 4 4 4 4 4 4 4 3 2 2 2 2 2 2 2 1 1 0 0 0 0 0 0 0 0 0 0 0 0
0 0 0 0 0 0 0 0 0 0 1 1 2 2 2 2 2 2 3 4 4 4 4 3 4 4 4 3 2 2 2 2 2 2 2 1 1 1 0 0 0 0 0 0 0 0 0 0 0
0 0 0 0 0 0 0 0 0 0 0 1 2 2 2 2 1 1 2 3 4 4 4 3 3 4 4 4 3 2 2 2 3 3 2 1 1 1 0 0 0 0 0 0 0 0 0 0 0
0 0 0 0 0 0 0 0 0 0 0 1 1 2 2 1 1 1 2 3 4 4 4 3 3 3 4 4 3 2 2 2 3 3 2 1 1 1 1 0 0 0 0 0 0 0 0 0 0
0 0 0 0 0 0 0 0 0 0 0 0 0 1 1 1 1 1 2 3 3 4 4 3 3 2 2 3 3 2 2 2 2 3 2 1 1 1 1 1 1 1 1 0 0 0 0 0 0
0 0 0 0 0 0 0 0 0 0 0 0 0 0 1 1 1 1 2 3 3 3 3 3 3 2 1 2 2 2 2 2 2 3 2 2 1 1 1 1 1 1 1 0 0 0 0 0 0
0 0 0 0 0 0 0 0 0 0 0 0 0 0 0 1 1 2 2 3 3 3 3 3 2 2 1 1 1 1 2 2 3 3 3 2 1 1 1 1 1 1 1 0 0 0 0 0 0
0 0 0 0 0 0 0 0 0 0 0 0 0 0 0 0 1 2 2 3 3 2 2 2 2 1 1 1 1 1 1 2 3 3 3 3 2 1 1 1 1 1 0 0 0 0 0 0 0
0 0 0 0 0 0 0 0 0 0 0 0 0 0 0 0 1 1 2 2 2 2 2 1 1 1 1 1 1 1 1 2 3 3 3 3 2 1 1 1 0 0 0 0 0 0 0 0 0
0 0 0 0 0 0 0 0 0 0 0 0 0 0 0 0 0 0 1 2 2 1 1 1 1 1 1 1 1 1 1 2 2 3 3 2 2 1 1 0 0 0 0 0 0 0 0 0 0
0 0 0 0 0 0 0 0 0 0 0 0 0 0 0 0 0 0 0 0 1 1 1 1 1 1 1 1 1 1 1 2 2 2 2 1 1 1 0 0 0 0 0 0 0 0 0 0 0
0 0 0 0 0 0 0 0 0 0 0 0 0 0 0 0 0 0 0 0 0 0 1 1 0 0 0 1 1 1 2 2 2 1 1 1 0 0 0 0 0 0 0 0 0 0 0 0 0
Wind_Speed
9 5 2 4 5 4 2 4 3 2 1 1 1 5 6 4 3 4 2 6 7 8 7 10 11 12 13 13 13 12 12 12 12 12 13 13 13 13 13 13 13 13 13 13 13 13 14 14 14
3 2 3 4 4 2 4 4 4 3 2 0 3 4 6 4 3 5 3 5 8 8 7 8 11 12 12 13 13 13 12 12 12 12 12 12 12 13 13 13 13 13 13 13 12 12 13 13 13
3 1 3 4 3 6 5 4 5 3 2 2 3 4 4 3 3 2 4 8 7 7 6 8 11 12 13 13 13 12 12 12 12 12 12 11 12 12 12 12 12 12 12 12 12 11 12 12 12
2 3 3 3 5 5 4 4 3 1 3 3 3 4 3 2 2 3 7 9 8 6 6 8 11 12 12 12 12 12 12 12 12 12 11 11 11 12 12 11 11 11 11 11 11 11 11 11 12
3 3 2 2 6 4 3 4 1 1 1 2 3 4 2 3 5 8 8 8 8 6 5 7 10 12 11 11 11 11 11 11 11 11 11 11 11 11 11 11 10 10 10 10 10 10 10 10 11
3 3 3 5 5 3 3 3 1 1 1 1 3 3 2 2 6 6 6 7 7 7 5 6 10 10 10 11 10 10 11 11 11 11 11 11 11 11 10 10 10 9 9 9 9 9 10 10 11
3 3 4 4 3 2 3 2 1 1 0 1 3 4 2 1 3 5 6 7 6 6 5 4 5 7 9 9 9 9 9 10 10 10 10 10 10 10 10 10 9 9 9 9 8 8 8 9 10
3 3 2 3 3 3 3 1 0 1 1 1 3 6 4 3 3 5 6 6 6 5 4 4 4 4 5 6 8 7 7 8 9 9 8 8 8 9 8 8 8 9 9 8 8 8 8 8 9
3 2 4 4 4 2 1 2 3 1 1 1 1 3 5 7 7 7 6 5 5 4 3 4 4 3 4 4 6 6 6 6 7 7 8 7 4 4 5 6 7 8 8 8 7 7 7 7 7
3 4 6 3 2 2 1 1 2 3 3 2 3 3 5 7 8 8 6 6 5 4 3 3 3 4 4 4 3 3 3 4 4 4 5 4 3 3 4 6 6 7 7 7 6 6 6 5 3
2 4 2 2 2 1 1 3 2 2 0 2 4 3 4 6 7 7 6 5 5 5 4 3 3 3 3 3 3 2 2 3 3 4 5 4 3 3 2 2 3 4 4 3 3 3 2 2 2
1 1 1 2 2 2 1 2 2 0 3 2 4 6 6 7 6 6 6 5 4 4 3 3 2 3 3 3 2 3 3 3 3 4 5 4 3 3 3 2 2 2 2 2 2 2 2 2 3
1 1 2 2 2 1 1 1 1 2 2 1 2 4 5 6 4 3 4 4 4 3 3 3 2 2 2 3 2 2 3 4 4 3 4 5 4 4 4 3 3 3 3 3 3 2 2 3 2
1 0 2 3 2 2 0 2 1 3 1 2 2 2 4 4 4 3 3 3 3 3 3 2 2 2 2 2 2 2 2 3 3 3 4 5 5 5 4 4 4 3 3 3 3 3 3 2 2
1 2 3 3 2 1 2 2 2 3 2 2 1 1 1 2 3 3 4 4 4 4 3 3 3 3 2 3 3 3 2 2 3 3 4 5 5 6 5 4 4 3 4 4 3 3 3 2 2
2 2 1 3 1 1 3 3 3 1 2 2 1 1 1 1 1 2 2 3 3 3 3 3 3 3 3 3 3 3 3 3 3 3 3 4 5 6 5 4 4 4 4 4 4 3 3 2 2
3 1 2 3 1 1 2 4 4 2 1 1 1 1 2 0 1 0 1 1 2 3 3 3 2 3 3 2 2 3 3 3 3 3 3 4 5 5 5 5 4 4 4 3 4 3 3 3 2
3 2 1 2 2 2 0 4 6 3 1 2 2 1 1 1 2 1 1 0 1 2 2 3 2 2 2 2 1 1 2 2 2 3 3 4 5 5 5 4 5 4 4 3 3 3 3 3 3
2 2 2 3 2 1 2 5 7 4 2 2 1 2 1 2 2 1 1 0 0 1 1 2 2 2 2 2 2 2 2 2 2 2 4 4 5 5 5 4 5 5 5 5 5 4 3 2 2
2 2 2 3 2 1 2 5 5 3 3 2 2 2 2 2 2 2 2 2 1 1 1 1 2 2 2 2 2 2 2 2 3 2 2 4 5 5 5 5 5 5 5 6 5 5 3 2 2
1 3 2 2 4 2 1 5 4 2 1 1 1 1 1 1 1 3 3 3 1 1 2 2 2 2 2 2 1 0 0 0 1 1 2 3 5 5 5 6 5 5 6 6 6 6 6 4 2
3 3 2 1 1 2 1 3 6 2 1 1 1 1 2 2 2 2 3 4 3 3 2 2 2 2 2 2 2 2 2 2 3 3 3 3 5 5 5 6 6 5 5 6 6 5 4 5 4
3 2 1 1 1 1 1 2 7 0 2 3 2 1 2 2 2 3 4 4 3 3 2 2 2 2 2 2 3 3 3 3 2 2 3 4 3 4 5 6 6 6 5 6 6 6 5 4 4
1 2 3 3 2 1 3 4 6 3 4 2 2 2 3 3 3 4 4 4 3 3 2 1 2 3 3 2 3 3 4 3 3 3 4 4 3 3 5 5 5 5 5 6 6 6 7 5 5
3 4 3 3 2 4 2 3 7 3 2 3 2 2 3 3 3 4 5 5 4 4 3 2 2 3 3 3 3 4 5 5 5 5 5 5 4 3 5 5 6 5 5 5 5 5 6 6 6
1 4 5 3 3 3 2 5 6 2 1 0 0 1 3 4 4 4 5 4 5 4 4 3 3 4 3 3 4 4 4 4 4 5 5 5 5 5 6 6 6 6 5 5 5 4 5 5 5
3 2 3 4 0 2 5 5 5 1 2 2 2 2 3 4 5 5 5 5 5 5 5 4 4 4 5 5 5 4 4 4 4 5 5 4 4 4 5 6 6 5 6 5 5 4 4 4 5
2 4 3 3 2 3 5 5 5 4 3 3 3 4 5 5 5 5 5 5 5 5 5 4 4 5 5 5 5 4 4 4 4 4 5 4 4 4 4 6 6 5 5 5 5 4 4 5 4
2 2 3 2 3 3 4 7 5 5 4 2 3 4 4 5 5 5 6 6 5 4 4 4 5 5 5 5 5 5 4 4 4 4 5 4 4 4 5 5 5 6 5 5 5 5 5 6 5
2 3 4 3 3 3 3 9 3 2 2 1 3 4 5 5 5 5 6 5 5 4 4 5 5 5 5 5 5 5 4 4 4 4 4 3 4 4 4 4 5 5 5 5 5 5 5 6 6
Wind_Direction
325 331 37 56 62 61 229 249 244 273 304 299 87 100 110 108 130 147 122 124 124 139 146 145 142 140 138 134 130 127 122 119 116 114 114 114 112 111 110 107 105 102 101 101 101 99 97 95 95
326 341 54 65 103 162 247 244 235 241 221 176 59 79 81 74 76 104 111 137 136 141 142 143 139 137 138 136 134 131 127 123 121 119 117 116 116 114 113 111 108 105 102 101 101 100 98 96 96
323 64 85 91 147 188 213 231 219 265 305 47 52 60 95 106 105 122 155 144 133 136 139 138 137 135 136 136 136 133 130 128 125 123 121 119 119 118 116 113 110 107 104 102 100 101 100 99 98
47 56 63 109 208 219 209 228 221 262 356 26 95 73 72 70 139 139 137 133 128 127 131 138 135 135 134 136 136 135 134 133 131 128 126 125 122 120 118 116 113 110 108 105 102 101 102 102 99
66 93 109 208 228 237 244 266 240 127 15 8 83 102 64 6 97 117 124 126 126 123 127 139 138 137 133 133 139 139 138 137 136 133 131 129 126 121 121 120 119 116 112 109 108 106 105 101 100
67 90 146 210 226 244 263 272 358 45 21 25 85 99 93 70 94 115 118 118 126 128 129 137 139 139 138 135 135 140 142 142 141 139 137 134 131 126 126 127 125 122 119 116 114 111 109 103 101
120 131 184 197 209 234 258 260 133 160 90 260 132 109 110 47 88 114 113 113 121 126 123 130 141 144 144 140 140 140 145 147 144 142 140 137 136 135 131 133 132 129 127 123 120 116 110 106 103
133 121 191 208 199 226 279 298 347 123 221 291 110 128 160 185 123 104 104 108 112 117 121 130 133 137 143 147 145 141 140 147 146 141 137 139 141 138 135 134 137 136 134 131 128 124 116 106 101
98 114 208 209 193 222 307 12 335 337 89 25 58 140 157 146 124 105 100 101 111 115 126 138 138 138 137 145 150 146 143 144 146 143 137 135 137 139 138 139 139 140 139 138 135 129 119 104 99
103 178 216 222 209 216 303 14 334 17 26 33 42 51 113 128 127 125 131 137 143 150 150 148 153 153 150 151 144 155 150 145 150 153 147 140 141 148 147 145 144 144 140 139 138 128 112 99 96
140 191 225 274 276 273 328 341 346 109 79 176 151 143 132 130 134 140 150 155 162 165 159 153 152 157 156 148 153 159 153 152 157 159 158 147 142 144 144 146 144 144 139 134 126 108 102 113 114
120 260 249 293 323 331 310 329 4 180 221 220 169 153 145 148 157 158 162 165 157 151 160 160 156 164 159 149 161 169 165 165 170 170 160 153 152 157 163 162 162 158 151 141 128 120 125 125 125
162 258 308 314 338 315 357 296 317 292 251 254 131 124 141 147 155 160 158 156 154 158 167 170 162 171 168 154 166 174 174 173 175 176 170 164 164 168 172 173 169 169 157 152 147 144 140 133 128
189 12 322 312 317 308 120 303 347 273 144 76 109 128 149 152 150 142 141 154 166 173 177 171 165 180 178 171 172 179 183 182 175 180 183 174 173 172 170 172 171 171 165 161 156 156 149 143 135
71 24 342 306 268 226 92 346 249 248 102 105 133 123 103 141 138 158 175 177 183 184 182 183 183 177 184 186 177 173 180 181 181 181 183 180 176 172 167 169 176 176 163 155 145 145 138 135 132
59 57 321 300 309 287 112 245 268 290 105 150 171 162 135 203 173 185 177 182 180 177 181 189 193 187 194 204 189 177 177 176 184 180 181 178 174 170 166 168 178 172 158 152 151 152 140 139 136
48 99 250 298 335 23 123 239 280 345 98 172 208 193 179 254 354 329 168 184 187 181 184 191 189 190 196 204 201 184 177 178 182 176 180 182 173 168 167 166 171 167 158 159 162 157 151 150 146
178 174 244 264 318 40 210 260 287 315 227 210 228 246 201 206 266 270 228 202 212 205 187 183 191 197 195 185 185 176 161 176 180 180 188 184 177 170 167 163 165 166 158 161 159 159 149 150 153
163 166 234 267 296 6 246 263 280 290 263 228 248 258 255 252 280 320 353 360 34 336 250 191 193 205 186 177 186 195 195 192 192 193 192 184 178 175 168 170 168 170 172 171 162 153 150 151 135
158 171 261 297 337 352 293 284 276 270 247 210 197 229 262 308 343 352 0 0 358 285 305 251 214 211 203 194 203 212 209 201 200 199 198 190 178 176 176 171 176 177 173 168 164 151 153 163 159
216 191 212 261 334 352 350 308 283 298 342 332 285 255 259 274 310 322 331 321 317 312 302 297 271 239 224 195 153 93 217 290 193 203 209 208 188 182 181 181 177 179 178 179 179 171 164 171 195
225 221 213 204 28 297 152 275 278 259 295 307 295 325 315 321 335 335 330 317 297 281 281 296 303 287 253 194 173 183 207 224 222 206 210 217 196 185 183 185 180 182 185 183 184 178 175 166 182
217 230 210 188 166 307 283 209 276 212 242 255 265 285 315 324 328 319 312 296 293 286 282 286 298 305 287 230 202 203 226 235 232 208 203 209 205 193 188 187 184 186 190 187 184 180 176 178 181
182 69 49 49 76 271 231 190 267 237 229 245 275 313 319 322 318 311 307 308 306 304 294 302 298 290 290 263 229 219 223 230 224 223 212 210 210 205 198 192 192 193 189 188 187 187 185 187 186
72 93 48 9 0 250 239 215 252 247 234 205 223 282 306 306 300 309 321 318 311 306 312 302 280 279 275 266 252 237 225 217 218 221 213 213 213 211 205 199 197 195 193 191 189 189 193 191 189
139 131 148 191 227 280 289 238 255 259 289 317 220 308 320 320 317 315 316 302 298 299 302 311 288 275 270 262 259 251 231 222 225 228 220 214 219 217 201 199 196 193 192 193 189 194 200 194 191
131 146 157 133 180 272 269 279 289 253 343 345 345 341 324 319 316 317 321 316 305 300 299 293 287 286 274 263 259 257 239 231 231 239 226 217 219 213 199 195 195 192 190 190 186 192 195 191 192
129 137 101 118 159 265 284 265 243 240 264 304 325 326 318 320 321 325 326 320 307 297 296 295 283 274 279 271 260 263 245 239 234 237 228 218 213 200 197 195 192 189 190 188 187 187 188 186 192
108 110 119 136 167 175 261 268 231 211 217 248 290 306 311 313 315 318 320 316 312 310 305 304 300 293 287 283 271 260 248 240 239 243 234 217 206 196 197 193 188 186 188 188 189 192 186 185 184
165 172 156 161 225 194 214 270 274 217 239 243 287 303 312 316 318 320 320 324 328 322 314 311 304 296 289 286 284 270 254 238 236 250 238 212 197 194 193 187 185 187 188 188 187 190 187 184 184